Location: Moscow
(30.9132°N, 94.8252°W)
Time: 08:03:54
(UTC+00:00)

Tiangong - Pass Details

Date: 15 November 2025
Orbit: 384 x 395 km, 41.5° (Epoch: 13 December)

Event Time Altitude Azimuth Distance (km) Brightness Sun altitude
Rises 01:17:55 0° 284° (WNW) 2,268 2.9 -24.9°
Reaches altitude 10° 01:20:27 10° 264° (W) 1,407 1.8 -25.5°
Enters shadow 01:22:35 17° 222° (SW) 1,049 0.6 -25.9°
